GW1402 Weather Reports


Display with metric or nautical units.
time (UTC)temp
F
wind
direction
speed
MPH
gust
MPH
rain 1hr
in
rain 24hr
in
rain mn
in
humidity
%
barometer
mb
20260505070021 54 315 0.0 0.0 0.00 0.00 0.00 48 1415.2
20260505065119 55 315 0.0 0.0 0.00 0.00 0.00 47 1415.2
20260505064219 55 337 1.0 1.0 0.00 0.00 0.00 47 1415.1
20260505063220 54 336 2.0 5.0 0.00 0.00 0.00 49 1415.2
20260505062220 54 37 4.0 6.0 0.00 0.00 0.00 48 1414.9
20260505062121 55 49 5.0 6.0 0.00 0.00 0.00 47 1415.0
20260505061121 56 258 4.0 6.0 0.00 0.00 0.00 45 1414.4
20260505060220 56 247 9.0 11.0 0.00 0.00 0.00 45 1414.1
20260505055242 57 247 8.0 9.0 0.00 0.00 0.00 44 1414.3
20260505054341 58 247 7.0 8.0 0.00 0.00 0.00 39 1414.3
20260505053325 58 270 7.0 7.0 0.00 0.00 0.00 39 1414.3
20260505052341 57 270 6.0 6.0 0.00 0.00 0.00 41 1414.3
20260505050425 57 360 0.0 0.0 0.00 0.00 0.00 42 1414.8
20260505041626 58 225 8.0 9.0 0.00 0.00 0.00 46 1414.1
20260505040624 57 225 7.0 8.0 0.00 0.00 0.00 49 1414.0
20260505035624 56 225 5.0 5.0 0.00 0.00 0.00 52 1413.7
20260505033625 58 202 4.0 4.0 0.00 0.00 0.00 46 1413.4
20260505032723 59 270 3.0 3.0 0.00 0.00 0.00 44 1413.2
20260505031726 60 270 4.0 4.0 0.00 0.00 0.00 43 1413.2
20260505030824 62 270 4.0 4.0 0.00 0.00 0.00 38 1412.9
20260505024825 62 292 5.0 5.0 0.00 0.00 0.00 39 1412.8
20260505023824 63 292 2.0 2.0 0.00 0.00 0.00 37 1412.5
20260505022825 65 292 2.0 3.0 0.00 0.00 0.00 35 1412.4
20260505021826 67 293 3.0 4.0 0.00 0.00 0.00 34 1412.2
20260505020826 69 315 3.0 3.0 0.00 0.00 0.00 30 1412.2
20260505015842 70 315 3.0 3.0 0.00 0.00 0.00 27 1412.3
20260505014826 72 315 3.0 4.0 0.00 0.00 0.00 25 1412.0
20260505013826 73 315 3.0 4.0 0.00 0.00 0.00 25 1412.1
20260505012826 74 315 2.0 3.0 0.00 0.00 0.00 23 1412.2
20260505011924 75 315 1.0 2.0 0.00 0.00 0.00 22 1412.1
20260505011825 75 315 2.0 3.0 0.00 0.00 0.00 22 1412.4
20260505010842 76 315 3.0 3.0 0.00 0.00 0.00 20 1412.3
20260505004941 77 304 1.0 1.0 0.00 0.00 0.00 18 1412.3
20260505004024 77 315 0.0 1.0 0.00 0.00 0.00 19 1412.3
20260505003025 77 319 2.0 3.0 0.00 0.00 0.00 20 1412.4
20260505002926 77 315 1.0 2.0 0.00 0.00 0.00 20 1412.4
20260505001926 77 315 2.0 4.0 0.00 0.00 0.00 19 1412.5
20260505001825 77 315 2.0 3.0 0.00 0.00 0.00 19 1412.5
20260505001725 77 315 2.0 2.0 0.00 0.00 0.00 18 1412.4
20260505000726 77 357 2.0 5.0 0.00 0.00 0.00 19 1412.4
20260504233824 77 292 3.0 4.0 0.00 0.00 0.00 18 1412.7
20260504233724 77 315 2.0 4.0 0.00 0.00 0.00 18 1412.5
20260504232723 78 292 4.0 4.0 0.00 0.00 0.00 17 1412.9
20260504231724 79 334 1.0 5.0 0.00 0.00 0.00 17 1412.9
20260504230724 78 348 3.0 4.0 0.00 0.00 0.00 19 1412.7
20260504224724 76 281 2.0 3.0 0.00 0.00 0.00 18 1413.0
20260504223724 77 270 4.0 4.0 0.00 0.00 0.00 19 1413.3
20260504222725 77 315 3.0 3.0 0.00 0.00 0.00 19 1413.2
20260504221824 78 258 2.0 4.0 0.00 0.00 0.00 20 1413.5
20260504220825 77 332 1.0 3.0 0.00 0.00 0.00 21 1413.8
20260504214925 77 247 4.0 4.0 0.00 0.00 0.00 20 1414.1
20260504213928 76 335 3.0 9.0 0.00 0.00 0.00 23 1414.4
20260504212925 76 225 4.0 4.0 0.00 0.00 0.00 20 1414.3
20260504212023 76 352 4.0 5.0 0.00 0.00 0.00 22 1414.9
20260504211024 75 272 2.0 3.0 0.00 0.00 0.00 22 1415.0
20260504210042 76 270 2.0 2.0 0.00 0.00 0.00 22 1415.2
20260504205025 76 339 1.0 3.0 0.00 0.00 0.00 20 1415.4
20260504204025 76 290 3.0 5.0 0.00 0.00 0.00 24 1415.4
20260504202025 74 304 2.0 3.0 0.00 0.00 0.00 26 1415.6
20260504201024 74 270 4.0 6.0 0.00 0.00 0.00 27 1415.7
20260504200025 75 266 4.0 6.0 0.00 0.00 0.00 29 1416.0
20260504195024 74 327 1.0 2.0 0.00 0.00 0.00 31 1416.2
20260504194026 72 84 1.0 2.0 0.00 0.00 0.00 31 1416.2
20260504193940 72 315 0.0 0.0 0.00 0.00 0.00 31 1416.3
20260504192926 72 247 3.0 5.0 0.00 0.00 0.00 31 1416.3
20260504190024 72 279 3.0 4.0 0.00 0.00 0.00 34 1416.7
20260504185024 71 315 0.0 2.0 0.00 0.00 0.00 36 1417.2
20260504184024 70 312 0.0 2.0 0.00 0.00 0.00 35 1417.5
20260504183026 69 292 1.0 3.0 0.00 0.00 0.00 37 1417.6
20260504182124 69 270 0.0 1.0 0.00 0.00 0.00 35 1417.9
20260504182025 69 270 1.0 2.0 0.00 0.00 0.00 35 1417.8
20260504181025 69 315 1.0 2.0 0.00 0.00 0.00 37 1418.1
20260504180124 69 266 3.0 4.0 0.00 0.00 0.00 36 1418.2
20260504175125 68 270 3.0 6.0 0.00 0.00 0.00 38 1418.3
20260504174124 66 331 0.0 3.0 0.00 0.00 0.00 40 1418.4
20260504172224 67 277 4.0 7.0 0.00 0.00 0.00 39 1418.5
20260504171224 66 273 2.0 3.0 0.00 0.00 0.00 39 1418.5
20260504150325 57 112 0.0 0.0 0.00 0.00 0.00 52 1419.6
20260504141326 51 360 0.0 1.0 0.00 0.00 0.00 62 1419.4
20260504140424 49 270 0.0 0.0 0.00 0.00 0.00 63 1419.3
20260504130433 42 360 0.0 0.0 0.00 0.00 0.00 69 1418.3
20260504081523 51 225 5.0 5.0 0.00 0.00 0.00 45 1417.8
20260504080526 53 247 4.0 5.0 0.00 0.00 0.00 42 1417.9